Lid_Strength_Index
11 13 15 13 13 14 16 17 17 15 14 15 15 14 13 15 16 17 19 19 19 19 17 17 17 17 18 18 17 17 16 16 16 16 17 16 17 16 16 15 14 14 14 13
13 14 13 13 13 14 16 17 17 15 15 15 16 16 14 15 15 16 16 18 19 19 19 18 18 18 18 18 17 17 17 16 16 16 16 17 18 18 17 16 15 15 14 14
13 13 12 14 15 15 16 17 17 17 16 16 18 20 17 16 15 15 16 17 18 18 19 19 19 18 19 18 18 17 17 16 16 17 16 17 17 18 18 17 16 15 15 14
13 13 14 15 15 15 17 15 16 16 18 21 18 22 20 18 17 16 17 19 18 19 19 19 19 19 18 18 18 17 17 17 16 17 17 18 20 20 19 18 17 16 15 15
13 15 15 16 15 14 15 15 17 18 19 20 20 22 21 20 19 17 17 18 18 19 19 19 19 18 17 17 18 18 18 17 16 17 18 18 19 18 18 18 18 17 16 15
13 14 15 14 15 14 14 16 17 19 20 24 21 21 23 20 18 18 18 18 19 19 19 19 18 18 18 18 18 18 18 17 17 18 18 19 20 19 19 19 18 18 17 16
15 15 15 14 15 14 15 17 20 22 24 22 22 23 18 16 17 18 18 18 19 19 19 19 19 19 18 19 18 18 18 18 18 18 19 20 20 20 20 19 19 18 18 17
16 17 15 14 15 15 16 16 19 23 24 20 22 22 19 18 19 20 19 18 19 20 19 19 19 19 19 19 18 19 19 19 19 20 20 20 20 20 19 19 19 18 18 18
17 17 16 15 15 15 17 19 17 19 30 27 20 20 18 20 20 21 20 21 21 20 20 19 19 19 19 19 19 19 20 20 20 20 21 21 22 21 20 20 19 18 18 17
13 16 17 17 17 17 17 16 20 20 25 28 22 21 18 19 19 22 22 21 20 20 20 19 19 19 19 19 19 20 20 21 21 21 22 21 22 21 20 20 20 19 18 18
14 14 18 18 18 17 19 19 19 18 19 23 26 19 17 17 18 21 21 20 20 20 20 19 19 19 19 19 20 21 21 21 21 21 22 22 22 21 21 20 20 19 19 18
14 15 19 18 19 19 17 17 17 19 21 21 20 19 19 17 17 20 20 20 20 19 20 20 19 19 20 20 21 21 22 22 22 22 22 23 22 22 22 21 20 19 19 19
14 17 22 19 19 19 20 18 17 17 19 19 20 19 19 19 20 20 20 20 20 20 20 20 20 20 20 21 22 22 23 23 22 23 23 23 23 23 22 21 20 20 20 19
11 15 17 17 17 18 20 20 19 17 19 17 18 17 15 14 15 19 21 21 20 19 19 20 20 20 21 21 23 23 24 23 23 24 24 24 23 23 22 21 21 21 21 21
12 14 16 14 13 16 16 16 20 19 17 18 17 17 15 13 13 13 15 20 20 20 19 20 20 21 22 23 23 24 24 24 24 25 25 24 23 23 22 22 22 22 22 21
15 14 14 16 15 16 17 16 16 17 17 17 16 17 12 11 12 13 18 20 20 19 19 19 19 20 21 22 23 23 25 25 24 25 24 24 24 23 23 23 23 23 22 22
18 17 20 18 17 17 19 17 16 15 14 15 18 15 12 13 17 19 20 19 19 19 19 20 21 22 22 23 23 26 26 25 25 25 26 26 25 25 25 24 25 24 24 23
20 20 18 18 20 21 16 18 16 16 15 15 14 14 13 13 18 18 19 19 19 19 20 21 22 24 24 24 25 26 25 25 25 26 27 26 26 27 26 26 26 25 24 22
14 17 18 18 19 16 16 16 20 19 16 15 15 14 13 19 21 20 20 19 18 19 20 22 24 25 25 26 26 26 26 26 26 27 27 27 27 28 28 29 27 25 24 23
16 14 15 18 20 21 15 21 19 18 20 13 15 15 16 20 23 17 20 20 21 22 23 24 25 25 26 27 26 27 27 27 28 28 28 27 28 30 30 28 26 25 24 22
19 18 18 17 18 17 14 20 19 22 16 17 15 15 20 19 16 19 20 21 21 22 24 25 25 26 27 27 27 27 28 28 29 28 28 29 29 30 29 26 26 26 24 22
18 19 20 18 18 20 19 21 18 14 17 17 18 19 18 18 19 19 20 22 23 24 24 25 26 27 27 28 28 28 28 29 28 29 31 31 32 29 26 28 27 25 24 24
17 15 16 16 16 15 17 13 14 16 16 18 18 19 17 19 20 20 21 22 23 24 24 25 26 27 28 29 29 30 30 29 29 34 35 33 30 28 27 27 27 25 23 23
15 14 15 16 14 14 17 14 17 16 16 17 18 17 17 19 19 20 21 22 23 24 26 27 28 28 30 30 29 31 30 30 37 37 33 29 29 28 27 26 25 24 23 23
11 14 14 14 13 13 13 13 14 15 16 17 17 17 16 17 19 20 21 22 23 25 26 27 27 29 30 29 30 31 31 32 35 32 29 30 29 29 27 25 24 22 21 20
12 13 15 15 11 11 11 11 14 15 15 15 16 17 16 17 18 19 20 22 24 26 27 28 28 29 30 30 30 31 35 36 37 32 31 30 29 29 27 26 24 20 19 18